Regional Weather Roundup
Issued by NWS

Home | Current Version | Previous Version | Text Only | Print | Product List | Glossary On
Versions: 1 2 3 4 5 6 7 8 9 10 11 12 13 14 15 16 17 18 19 20 21 22 23 24 25 26 27 28 29 30 31 32 33 34 35 36 37 38 39 40 41 42 43 44 45 46 47 48 49 50
000
ASUS43 KDMX 051607
RWRIA

WEATHER ROUNDUP FOR IOWA
NATIONAL WEATHER SERVICE DES MOINES IA
1100 AM CDT TUE MAY 05 2015

NOTE: "FAIR" INDICATES FEW OR NO CLOUDS BELOW 12,000 FEET WITH NO
SIGNIFICANT WEATHER AND/OR OBSTRUCTIONS TO VISIBILITY.

* - THESE STATIONS ARE NOT NWS STATIONS...THUS NOT UNDER NWS
QUALITY CONTROL.  THEY ALSO DO NOT REPORT WEATHER SUCH
AS PRECIPITATION OR FOG.

IAZ001>003-012>014-020>022-031>034-043>046-051700-
   NORTHWEST IOWA

CITY           SKY/WX    TMP DP  RH WIND       PRES   REMARKS
CARROLL *      CLOUDY    66  63  88 S13       30.10S
CHEROKEE *     CLOUDY    57  55  94 E7        30.11R FOG
DENISON *      CLOUDY    64  64 100 SW9       30.08S
LE MARS *      CLOUDY    59  54  82 MISG      30.11R
ORANGE CITY *  CLOUDY    61  54  77 SE9       30.10R
SHELDON *      CLOUDY    61  57  88 E15       30.09R
SIOUX CITY     CLOUDY    59  55  87 SE7       30.09S FOG
SPENCER        CLOUDY    58  56  93 E14       30.11S FOG
STORM LAKE *   FOG       57  57 100 SE9       30.12R VSB 0
$$

IAZ055>058-069>071-079>083-090>094-051700-
   SOUTHWEST IOWA

CITY           SKY/WX    TMP DP  RH WIND       PRES   REMARKS
ATLANTIC *     CLOUDY    64  63  94 S10       30.11S
AUDUBON *      SUNNY     66  61  82 S12       30.12R
CLARINDA *     PTSUNNY   70  63  78 SE10      30.13R
COUNCIL BLFS * PTSUNNY   68  68 100 S8        30.10S
CRESTON *      PTSUNNY   68  64  88 SE9       30.13S
HARLAN  *      MOSUNNY   68  68 100 S12G18    30.13S
LAMONI         CLOUDY    70  62  76 SE9       30.13R
RED OAK *      CLOUDY    68  63  83 S9        30.11S
SHENANDOAH *   PTSUNNY   68  64  88 SE13      30.11S
$$

IAZ047>049-059>061-072>074-084-051700-
   CENTRAL IOWA

CITY           SKY/WX    TMP DP  RH WIND       PRES   REMARKS
AMES           PTSUNNY   69  62  78 SW10      30.11S
ANKENY *       CLOUDY    68  63  83 S10       30.11S
CHARITON *     MOSUNNY   70  63  78 S10       30.13S
DES MOINES     CLOUDY    70  61  73 S10       30.11S
GRINNELL*      CLOUDY    66  63  88 S7        30.14R
KNOXVILLE *    CLOUDY    68  61  77 S10       30.12R
MARSHALLTOWN   CLOUDY    64  61  90 E3        30.13R
PELLA *        PTSUNNY   70  70 100 S8        30.14R
PERRY *        CLOUDY    68  63  83 S10       30.11S
$$

IAZ004>006-015-016-023>025-035-036-051700-
   NORTH CENTRAL IOWA

CITY           SKY/WX    TMP DP  RH WIND       PRES   REMARKS
ALGONA *       CLOUDY    57  57 100 E15       30.14S FOG
CLARION *      FOG       57  57 100 E15       30.14S VSB 1/4
ESTHERVILLE    LGT RAIN  57  56  96 E12       30.12S FOG
FORT DODGE *   CLOUDY    59  55  88 E12       30.13S VSB 3/4
MASON CITY     CLOUDY    54  53  97 E13       30.18R
FOREST CITY *  DRIZZLE   52  52 100 E14       30.16S
IOWA FALLS *   CLOUDY    61  59  94 E9        30.15S FOG
$$

IAZ007>011-017>019-026>030-037>042-050>054-066-051700-
   NORTHEAST IOWA

CITY           SKY/WX    TMP DP  RH WIND       PRES   REMARKS
CEDAR RAPIDS   FOG       60  60 100 E12       30.15S VSB 1/2
CHARLES CITY * CLOUDY    54  54 100 E17       30.18S
CLINTON *      CLOUDY    57  54  88 E10       30.22R
DECORAH *      CLOUDY    52  50  93 E20       30.21S
DUBUQUE        CLOUDY    53  51  93 NE7       30.21S
MONTICELLO *   CLOUDY    55  55 100 E12       30.19S
OELWEIN *      CLOUDY    54  54 100 E14G20    30.19S
WATERLOO       CLOUDY    55  53  93 E15       30.17R
$$

IAZ064-065-067-068-078-051700-
   EAST CENTRAL IOWA

CITY           SKY/WX    TMP DP  RH WIND       PRES   REMARKS
DAVENPORT      CLOUDY    60  57  89 NE8       30.19R FOG
IOWA CITY      CLOUDY    67  62  84 E6        30.17S
MT. PLEASANT * MOSUNNY   72  64  78 S8        30.15S
MUSCATINE *    CLOUDY    70  63  78 S6        30.16S
QUAD CITIES    CLOUDY    66  61  84 NE9       30.17S HAZE
$$

IAZ062-063-075>077-085>089-095>099-051700-
   SOUTHEAST IOWA

CITY           SKY/WX    TMP DP  RH WIND       PRES   REMARKS
BURLINGTON     MOSUNNY   72  65  78 S7        30.15S
FAIRFIELD *    MOSUNNY   72  63  73 S10       30.15S
FORT MADISON * PTSUNNY   72  64  78 S6        30.16S
KEOKUK *       SUNNY     72  66  83 VRB3      30.15S
OSKALOOSA *      N/A     70  63  78 S12       30.14S
CENTERVILLE *  SUNNY     72  64  78 SE10      30.16S
OTTUMWA        PTSUNNY   72  64  76 S10       30.12F
WASHINGTON *   PTSUNNY   72  72 100 VRB6      30.15S
$$

ABBREVIATIONS USED IN REMARKS
   TC - TEMPERATURES IN CELSIUS
  WCI - WIND CHILL INDEX
   HX - HEAT INDEX
  VSB - VISIBILITY
$$



USA.gov is the U.S. government's official web portal to all federal, state and local government web resources and services.